Tracking 19795 objects as of 20-Jul-2019
HD Live streaming from Space Station
objects crossing your sky now

ARIANE 3 DEB

Track ARIANE 3 DEB now!


NORAD ID: 26807
Int'l Code: 1988-081H
Perigee: 1,042.6 km
Apogee: 36,564.6 km
Inclination: 6.4 °
Period: 662.5 minutes
Semi major axis: 25174 km
RCS: 0.4361 m2 (medium)
Launch date: September 8, 1988
Source: France (FR)
Launch site: FRENCH GUIANA (FRGUI)

Note: This is SATELLITE DEBRIS
aabbcc
Your satellite tracking list
Your tracking list is empty




NASA's NSSDC Master Catalog

Two Line Element Set (TLE):
1 26807U 88081H   19196.50760875 -.00000232  00000-0  00000+0 0  9999
2 26807   6.3839  64.8178 7055118 231.7488  22.7892  2.17349884158446
Source of the keplerian elements: AFSPC